| time (UTC) | temp C | wind direction | speed KPH | gust KPH | rain 1hr cm | rain 24hr cm | rain mn cm | humidity % | barometer mb |
| 20260503200330 | 18 | 154 | 6.4 | 11.3 | 0.00 | 0.00 | 0.00 | ||
| 20260503195927 | 18 | 157 | 8.0 | 12.9 | 0.00 | 0.00 | 0.00 | ||
| 20260503195526 | 18 | 150 | 8.0 | 12.9 | 0.00 | 0.00 | 0.00 | ||
| 20260503195124 | 18 | 156 | 9.7 | 14.5 | 0.00 | 0.00 | 0.00 | ||
| 20260503194723 | 18 | 157 | 9.7 | 14.5 | 0.00 | 0.00 | 0.00 | ||
| 20260503194321 | 18 | 157 | 8.0 | 12.9 | 0.00 | 0.00 | 0.00 | ||
| 20260503193919 | 19 | 156 | 8.0 | 14.5 | 0.00 | 0.00 | 0.00 | ||
| 20260503193511 | 19 | 165 | 9.7 | 12.9 | 0.00 | 0.00 | 0.00 | ||
| 20260503193109 | 20 | 161 | 9.7 | 16.1 | 0.00 | 0.00 | 0.00 | ||
| 20260503192708 | 20 | 165 | 8.0 | 11.3 | 0.00 | 0.00 | 0.00 | ||
| 20260503192306 | 20 | 174 | 11.3 | 16.1 | 0.00 | 0.00 | 0.00 | ||
| 20260503191904 | 20 | 191 | 9.7 | 12.9 | 0.00 | 0.00 | 0.00 | ||
| 20260503191503 | 20 | 172 | 11.3 | 16.1 | 0.00 | 0.00 | 0.00 | ||
| 20260503191101 | 20 | 191 | 9.7 | 14.5 | 0.00 | 0.00 | 0.00 | ||
| 20260503190659 | 20 | 186 | 9.7 | 16.1 | 0.00 | 0.00 | 0.00 | ||
| 20260503190258 | 20 | 202 | 8.0 | 11.3 | 0.00 | 0.00 | 0.00 | ||
| 20260503185856 | 20 | 192 | 11.3 | 14.5 | 0.00 | 0.00 | 0.00 | ||
| 20260503185448 | 21 | 192 | 11.3 | 16.1 | 0.00 | 0.00 | 0.00 | ||
| 20260503185045 | 21 | 182 | 11.3 | 17.7 | 0.00 | 0.00 | 0.00 | ||
| 20260503184644 | 21 | 187 | 12.9 | 17.7 | 0.00 | 0.00 | 0.00 | ||
| 20260503184243 | 21 | 198 | 14.5 | 20.9 | 0.00 | 0.00 | 0.00 | ||
| 20260503183842 | 21 | 194 | 14.5 | 19.3 | 0.00 | 0.00 | 0.00 | ||
| 20260503183439 | 21 | 191 | 12.9 | 16.1 | 0.00 | 0.00 | 0.00 | ||
| 20260503183038 | 21 | 193 | 11.3 | 16.1 | 0.00 | 0.00 | 0.00 | ||
| 20260503182637 | 21 | 189 | 11.3 | 16.1 | 0.00 | 0.00 | 0.00 | ||
| 20260503182236 | 21 | 185 | 11.3 | 14.5 | 0.00 | 0.00 | 0.00 | ||
| 20260503181834 | 21 | 191 | 12.9 | 16.1 | 0.00 | 0.00 | 0.00 | ||
| 20260503181425 | 21 | 180 | 9.7 | 14.5 | 0.00 | 0.00 | 0.00 | ||
| 20260503181023 | 22 | 192 | 11.3 | 14.5 | 0.00 | 0.00 | 0.00 | ||
| 20260503180622 | 22 | 187 | 11.3 | 16.1 | 0.00 | 0.00 | 0.00 | ||
| 20260503180221 | 22 | 180 | 6.4 | 11.3 | 0.00 | 0.00 | 0.00 | ||
| 20260503175818 | 22 | 193 | 12.9 | 19.3 | 0.00 | 0.00 | 0.00 | ||
| 20260503175416 | 22 | 180 | 11.3 | 16.1 | 0.00 | 0.00 | 0.00 | ||
| 20260503175015 | 22 | 182 | 11.3 | 16.1 | 0.00 | 0.00 | 0.00 | ||
| 20260503174614 | 22 | 192 | 12.9 | 22.5 | 0.00 | 0.00 | 0.00 | ||
| 20260503174211 | 22 | 183 | 12.9 | 17.7 | 0.00 | 0.00 | 0.00 | ||
| 20260503173810 | 23 | 178 | 14.5 | 16.1 | 0.00 | 0.00 | 0.00 | ||
| 20260503173402 | 23 | 181 | 14.5 | 19.3 | 0.00 | 0.00 | 0.00 | ||
| 20260503173000 | 23 | 171 | 8.0 | 12.9 | 0.00 | 0.00 | 0.00 | ||
| 20260503172558 | 23 | 172 | 12.9 | 17.7 | 0.00 | 0.00 | 0.00 | ||
| 20260503172157 | 23 | 172 | 12.9 | 20.9 | 0.00 | 0.00 | 0.00 | ||
| 20260503171755 | 23 | 183 | 14.5 | 19.3 | 0.00 | 0.00 | 0.00 | ||
| 20260503171354 | 23 | 170 | 14.5 | 20.9 | 0.00 | 0.00 | 0.00 | ||
| 20260503170952 | 24 | 169 | 11.3 | 16.1 | 0.00 | 0.00 | 0.00 | ||
| 20260503170550 | 24 | 182 | 12.9 | 22.5 | 0.00 | 0.00 | 0.00 | ||
| 20260503170149 | 24 | 171 | 12.9 | 16.1 | 0.00 | 0.00 | 0.00 | ||
| 20260503160112 | 26 | 198 | 16.1 | 22.5 | 0.00 | 0.00 | 0.00 | ||
| 20260503150841 | 27 | 225 | 8.0 | 17.7 | 0.00 | 0.00 | 0.00 | ||
| 20260503150440 | 26 | 225 | 3.2 | 6.4 | 0.00 | 0.00 | 0.00 | ||
| 20260503131134 | 26 | 196 | 4.8 | 11.3 | 0.00 | 0.00 | 0.00 | ||
| 20260503130731 | 26 | 188 | 6.4 | 11.3 | 0.00 | 0.00 | 0.00 | ||
| 20260503130330 | 26 | 201 | 11.3 | 19.3 | 0.00 | 0.00 | 0.00 | ||
| 20260503110620 | 24 | 199 | 4.8 | 8.0 | 0.00 | 0.00 | 0.00 | ||
| 20260503110220 | 25 | 201 | 11.3 | 16.1 | 0.00 | 0.00 | 0.00 | ||
| 20260503100142 | 23 | 164 | 6.4 | 16.1 | 0.00 | 0.00 | 0.00 | ||
| 20260503090511 | 22 | 136 | 14.5 | 22.5 | 0.00 | 0.00 | 0.00 | ||
| 20260503090110 | 22 | 108 | 12.9 | 17.7 | 0.00 | 0.00 | 0.00 | ||
| 20260503081243 | 21 | 123 | 14.5 | 19.3 | 0.00 | 0.00 | 0.00 | ||
| 20260503080835 | 20 | 131 | 16.1 | 22.5 | 0.00 | 0.00 | 0.00 | ||
| 20260503080433 | 20 | 135 | 17.7 | 25.7 | 0.00 | 0.00 | 0.00 | ||
| 20260503072811 | 20 | 146 | 12.9 | 20.9 | 0.00 | 0.00 | 0.00 | ||
| 20260503072408 | 20 | 136 | 17.7 | 22.5 | 0.00 | 0.00 | 0.00 | ||
| 20260503072007 | 20 | 139 | 19.3 | 30.6 | 0.00 | 0.00 | 0.00 | ||
| 20260503071606 | 20 | 138 | 12.9 | 20.9 | 0.00 | 0.00 | 0.00 | ||
| 20260503071204 | 20 | 143 | 16.1 | 22.5 | 0.00 | 0.00 | 0.00 | ||
| 20260503070802 | 21 | 131 | 16.1 | 29.0 | 0.00 | 0.00 | 0.00 | ||
| 20260503070400 | 22 | 149 | 17.7 | 25.7 | 0.00 | 0.00 | 0.00 | ||
| 20260503060323 | 18 | 140 | 16.1 | 27.4 | 0.00 | 0.00 | 0.00 | ||
| 20260503055118 | 18 | 127 | 16.1 | 24.1 | 0.00 | 0.00 | 0.00 | ||
| 20260503054717 | 18 | 129 | 16.1 | 19.3 | 0.00 | 0.00 | 0.00 | ||
| 20260503054315 | 18 | 138 | 12.9 | 22.5 | 0.00 | 0.00 | 0.00 | ||
| 20260503053913 | 18 | 132 | 12.9 | 19.3 | 0.00 | 0.00 | 0.00 | ||
| 20260503053512 | 18 | 148 | 12.9 | 17.7 | 0.00 | 0.00 | 0.00 | ||
| 20260503053110 | 17 | 150 | 14.5 | 20.9 | 0.00 | 0.00 | 0.00 | ||
| 20260503052702 | 17 | 136 | 14.5 | 22.5 | 0.00 | 0.00 | 0.00 | ||
| 20260503052259 | 17 | 136 | 11.3 | 16.1 | 0.00 | 0.00 | 0.00 | ||
| 20260503051858 | 17 | 149 | 11.3 | 19.3 | 0.00 | 0.00 | 0.00 | ||
| 20260503051457 | 17 | 140 | 11.3 | 17.7 | 0.00 | 0.00 | 0.00 | ||
| 20260503051056 | 17 | 141 | 11.3 | 20.9 | 0.00 | 0.00 | 0.00 | ||
| 20260503050653 | 17 | 142 | 14.5 | 20.9 | 0.00 | 0.00 | 0.00 | ||
| 20260503050252 | 17 | 138 | 12.9 | 16.1 | 0.00 | 0.00 | 0.00 | ||
| 20260503045851 | 17 | 145 | 11.3 | 16.1 | 0.00 | 0.00 | 0.00 | ||
| 20260503045450 | 17 | 144 | 11.3 | 16.1 | 0.00 | 0.00 | 0.00 | ||
| 20260503045047 | 16 | 145 | 11.3 | 17.7 | 0.00 | 0.00 | 0.00 | ||
| 20260503044639 | 16 | 132 | 11.3 | 19.3 | 0.00 | 0.00 | 0.00 | ||
| 20260503044237 | 16 | 131 | 11.3 | 16.1 | 0.00 | 0.00 | 0.00 | ||
| 20260503043836 | 16 | 143 | 12.9 | 16.1 | 0.00 | 0.00 | 0.00 | ||
| 20260503043435 | 16 | 138 | 12.9 | 22.5 | 0.00 | 0.00 | 0.00 | ||
| 20260503043032 | 16 | 140 | 11.3 | 17.7 | 0.00 | 0.00 | 0.00 | ||
| 20260503042631 | 15 | 151 | 11.3 | 14.5 | 0.00 | 0.00 | 0.00 | ||
| 20260503042229 | 16 | 145 | 11.3 | 16.1 | 0.00 | 0.00 | 0.00 | ||
| 20260503041828 | 15 | 139 | 8.0 | 14.5 | 0.00 | 0.00 | 0.00 | ||
| 20260503041426 | 15 | 127 | 12.9 | 20.9 | 0.00 | 0.00 | 0.00 | ||
| 20260503041024 | 15 | 146 | 8.0 | 12.9 | 0.00 | 0.00 | 0.00 | ||
| 20260503040616 | 15 | 142 | 9.7 | 17.7 | 0.00 | 0.00 | 0.00 | ||
| 20260503040214 | 15 | 136 | 9.7 | 16.1 | 0.00 | 0.00 | 0.00 | ||
| 20260503035812 | 15 | 121 | 8.0 | 12.9 | 0.00 | 0.00 | 0.00 | ||
| 20260503035411 | 15 | 129 | 9.7 | 16.1 | 0.00 | 0.00 | 0.00 | ||
| 20260503035009 | 14 | 133 | 11.3 | 16.1 | 0.00 | 0.00 | 0.00 | ||
| 20260503034608 | 14 | 135 | 8.0 | 14.5 | 0.00 | 0.00 | 0.00 | ||
| 20260503034205 | 14 | 153 | 9.7 | 16.1 | 0.00 | 0.00 | 0.00 | ||
| 20260503033804 | 13 | 129 | 9.7 | 16.1 | 0.00 | 0.00 | 0.00 | ||
| 20260503033403 | 14 | 140 | 8.0 | 16.1 | 0.00 | 0.00 | 0.00 | ||
| 20260503033001 | 14 | 131 | 9.7 | 16.1 | 0.00 | 0.00 | 0.00 | ||
| 20260503032553 | 14 | 138 | 9.7 | 12.9 | 0.00 | 0.00 | 0.00 | ||
| 20260503032150 | 13 | 124 | 9.7 | 14.5 | 0.00 | 0.00 | 0.00 | ||
| 20260503031749 | 14 | 129 | 9.7 | 16.1 | 0.00 | 0.00 | 0.00 | ||
| 20260503031348 | 13 | 125 | 9.7 | 14.5 | 0.00 | 0.00 | 0.00 | ||
| 20260503030947 | 13 | 121 | 8.0 | 12.9 | 0.00 | 0.00 | 0.00 | ||
| 20260503030545 | 14 | 126 | 9.7 | 12.9 | 0.00 | 0.00 | 0.00 | ||
| 20260503030143 | 13 | 123 | 11.3 | 16.1 | 0.00 | 0.00 | 0.00 | ||
| 20260503025742 | 13 | 136 | 9.7 | 14.5 | 0.00 | 0.00 | 0.00 | ||
| 20260503025341 | 13 | 135 | 11.3 | 14.5 | 0.00 | 0.00 | 0.00 | ||
| 20260503024938 | 13 | 153 | 9.7 | 12.9 | 0.00 | 0.00 | 0.00 | ||
| 20260503024530 | 13 | 156 | 9.7 | 12.9 | 0.00 | 0.00 | 0.00 | ||
| 20260503024128 | 13 | 142 | 8.0 | 11.3 | 0.00 | 0.00 | 0.00 | ||
| 20260503023727 | 13 | 154 | 8.0 | 9.7 | 0.00 | 0.00 | 0.00 | ||
| 20260503023325 | 13 | 131 | 8.0 | 12.9 | 0.00 | 0.00 | 0.00 | ||
| 20260503022923 | 13 | 141 | 8.0 | 11.3 | 0.00 | 0.00 | 0.00 | ||
| 20260503022522 | 13 | 141 | 9.7 | 14.5 | 0.00 | 0.00 | 0.00 | ||
| 20260503022120 | 13 | 146 | 11.3 | 14.5 | 0.00 | 0.00 | 0.00 | ||
| 20260503021719 | 13 | 140 | 11.3 | 16.1 | 0.00 | 0.00 | 0.00 | ||
| 20260503021317 | 13 | 150 | 11.3 | 12.9 | 0.00 | 0.00 | 0.00 | ||
| 20260503020915 | 13 | 154 | 8.0 | 11.3 | 0.00 | 0.00 | 0.00 | ||
| 20260503020507 | 13 | 159 | 6.4 | 9.7 | 0.00 | 0.00 | 0.00 | ||
| 20260503020105 | 14 | 150 | 8.0 | 12.9 | 0.00 | 0.00 | 0.00 | ||
| 20260503015703 | 14 | 143 | 11.3 | 14.5 | 0.00 | 0.00 | 0.00 | ||
| 20260503015305 | 14 | 150 | 9.7 | 14.5 | 0.00 | 0.00 | 0.00 | ||
| 20260503014901 | 14 | 136 | 8.0 | 14.5 | 0.00 | 0.00 | 0.00 | ||
| 20260503014500 | 14 | 126 | 11.3 | 14.5 | 0.00 | 0.00 | 0.00 | ||
| 20260503014057 | 14 | 137 | 11.3 | 19.3 | 0.00 | 0.00 | 0.00 | ||
| 20260503013656 | 14 | 136 | 11.3 | 20.9 | 0.00 | 0.00 | 0.00 | ||
| 20260503013255 | 15 | 132 | 8.0 | 14.5 | 0.00 | 0.00 | 0.00 | ||
| 20260503012853 | 14 | 117 | 11.3 | 25.7 | 0.00 | 0.00 | 0.00 | ||
| 20260503012444 | 14 | 136 | 11.3 | 16.1 | 0.00 | 0.00 | 0.00 | ||
| 20260503012042 | 14 | 120 | 9.7 | 12.9 | 0.00 | 0.00 | 0.00 | ||
| 20260503011641 | 14 | 134 | 8.0 | 17.7 | 0.00 | 0.00 | 0.00 | ||
| 20260503011241 | 13 | 169 | 4.8 | 14.5 | 0.00 | 0.00 | 0.00 | ||
| 20260503010837 | 14 | 143 | 8.0 | 12.9 | 0.00 | 0.00 | 0.00 | ||
| 20260503010435 | 14 | 123 | 9.7 | 16.1 | 0.00 | 0.00 | 0.00 | ||
| 20260503010033 | 14 | 132 | 11.3 | 14.5 | 0.00 | 0.00 | 0.00 | ||
| 20260503005632 | 14 | 120 | 9.7 | 16.1 | 0.00 | 0.00 | 0.00 | ||
| 20260503005231 | 14 | 121 | 9.7 | 14.5 | 0.00 | 0.00 | 0.00 | ||
| 20260503004828 | 14 | 115 | 6.4 | 9.7 | 0.00 | 0.00 | 0.00 | ||
| 20260503004420 | 14 | 121 | 8.0 | 12.9 | 0.00 | 0.00 | 0.00 | ||
| 20260503004018 | 14 | 120 | 8.0 | 11.3 | 0.00 | 0.00 | 0.00 | ||
| 20260503003617 | 14 | 124 | 9.7 | 14.5 | 0.00 | 0.00 | 0.00 | ||
| 20260503003215 | 15 | 138 | 8.0 | 14.5 | 0.00 | 0.00 | 0.00 | ||
| 20260503002813 | 14 | 137 | 9.7 | 17.7 | 0.00 | 0.00 | 0.00 | ||
| 20260503002011 | 14 | 120 | 8.0 | 11.3 | 0.00 | 0.00 | 0.00 | ||
| 20260503001608 | 14 | 129 | 8.0 | 14.5 | 0.00 | 0.00 | 0.00 | ||
| 20260503001207 | 14 | 136 | 4.8 | 9.7 | 0.00 | 0.00 | 0.00 | ||
| 20260503000806 | 14 | 122 | 4.8 | 9.7 | 0.00 | 0.00 | 0.00 | ||
| 20260503000400 | 14 | 125 | 8.0 | 12.9 | 0.00 | 0.00 | 0.00 | ||
| 20260502235956 | 14 | 125 | 6.4 | 12.9 | 0.00 | 0.00 | 0.00 | ||
| 20260502235554 | 14 | 118 | 9.7 | 12.9 | 0.00 | 0.00 | 0.00 | ||
| 20260502235153 | 14 | 117 | 8.0 | 12.9 | 0.00 | 0.00 | 0.00 | ||
| 20260502234751 | 14 | 117 | 6.4 | 11.3 | 0.00 | 0.00 | 0.00 | ||
| 20260502234350 | 14 | 115 | 8.0 | 12.9 | 0.00 | 0.00 | 0.00 | ||
| 20260502233946 | 15 | 118 | 9.7 | 16.1 | 0.00 | 0.00 | 0.00 | ||
| 20260502233545 | 14 | 105 | 9.7 | 14.5 | 0.00 | 0.00 | 0.00 | ||
| 20260502233144 | 15 | 108 | 12.9 | 14.5 | 0.00 | 0.00 | 0.00 | ||
| 20260502232742 | 15 | 106 | 11.3 | 12.9 | 0.00 | 0.00 | 0.00 | ||
| 20260502232332 | 15 | 114 | 11.3 | 16.1 | 0.00 | 0.00 | 0.00 | ||
| 20260502231931 | 15 | 109 | 11.3 | 14.5 | 0.00 | 0.00 | 0.00 | ||
| 20260502231530 | 15 | 108 | 12.9 | 16.1 | 0.00 | 0.00 | 0.00 | ||
| 20260502231128 | 15 | 112 | 11.3 | 16.1 | 0.00 | 0.00 | 0.00 | ||
| 20260502230725 | 15 | 107 | 11.3 | 16.1 | 0.00 | 0.00 | 0.00 | ||
| 20260502230324 | 15 | 108 | 12.9 | 17.7 | 0.00 | 0.00 | 0.00 | ||
| 20260502225922 | 15 | 112 | 9.7 | 14.5 | 0.00 | 0.00 | 0.00 | ||
| 20260502225521 | 14 | 125 | 8.0 | 14.5 | 0.00 | 0.00 | 0.00 | ||
| 20260502225120 | 13 | 135 | 3.2 | 8.0 | 0.00 | 0.00 | 0.00 | ||
| 20260502224717 | 14 | 138 | 6.4 | 11.3 | 0.00 | 0.00 | 0.00 | ||
| 20260502224309 | 15 | 135 | 4.8 | 6.4 | 0.00 | 0.00 | 0.00 | ||
| 20260502223908 | 15 | 117 | 6.4 | 8.0 | 0.00 | 0.00 | 0.00 | ||
| 20260502223507 | 15 | 109 | 8.0 | 11.3 | 0.00 | 0.00 | 0.00 | ||
| 20260502223104 | 15 | 114 | 8.0 | 11.3 | 0.00 | 0.00 | 0.00 | ||
| 20260502222703 | 15 | 111 | 8.0 | 14.5 | 0.00 | 0.00 | 0.00 | ||
| 20260502222305 | 15 | 114 | 9.7 | 12.9 | 0.00 | 0.00 | 0.00 | ||
| 20260502221900 | 15 | 120 | 8.0 | 11.3 | 0.00 | 0.00 | 0.00 | ||
| 20260502221458 | 15 | 126 | 8.0 | 11.3 | 0.00 | 0.00 | 0.00 | ||
| 20260502221057 | 15 | 115 | 9.7 | 14.5 | 0.00 | 0.00 | 0.00 | ||
| 20260502220655 | 15 | 112 | 8.0 | 9.7 | 0.00 | 0.00 | 0.00 | ||
| 20260502220247 | 15 | 114 | 6.4 | 11.3 | 0.00 | 0.00 | 0.00 | ||
| 20260502215844 | 15 | 114 | 6.4 | 9.7 | 0.00 | 0.00 | 0.00 | ||
| 20260502215443 | 15 | 111 | 8.0 | 11.3 | 0.00 | 0.00 | 0.00 | ||
| 20260502215042 | 14 | 106 | 6.4 | 8.0 | 0.00 | 0.00 | 0.00 | ||
| 20260502214640 | 14 | 111 | 4.8 | 8.0 | 0.00 | 0.00 | 0.00 | ||
| 20260502214239 | 14 | 111 | 4.8 | 6.4 | 0.00 | 0.00 | 0.00 | ||
| 20260502213836 | 15 | 98 | 6.4 | 9.7 | 0.00 | 0.00 | 0.00 | ||
| 20260502213435 | 14 | 111 | 8.0 | 9.7 | 0.00 | 0.00 | 0.00 | ||
| 20260502213034 | 14 | 111 | 6.4 | 9.7 | 0.00 | 0.00 | 0.00 | ||
| 20260502212632 | 13 | 111 | 6.4 | 8.0 | 0.00 | 0.00 | 0.00 | ||
| 20260502212223 | 13 | 111 | 4.8 | 6.4 | 0.00 | 0.00 | 0.00 | ||
| 20260502211822 | 13 | 122 | 4.8 | 4.8 | 0.00 | 0.00 | 0.00 | ||
| 20260502211421 | 13 | 135 | 1.6 | 4.8 | 0.00 | 0.00 | 0.00 | ||
| 20260502211020 | 13 | 135 | 4.8 | 6.4 | 0.00 | 0.00 | 0.00 | ||
| 20260502210617 | 13 | 135 | 4.8 | 4.8 | 0.00 | 0.00 | 0.00 | ||
| 20260502210216 | 13 | 135 | 4.8 | 6.4 | 0.00 | 0.00 | 0.00 | ||
| 20260502205814 | 13 | 135 | 3.2 | 6.4 | 0.00 | 0.00 | 0.00 | ||
| 20260502205413 | 14 | 135 | 3.2 | 4.8 | 0.00 | 0.00 | 0.00 | ||
| 20260502204609 | 13 | 135 | 3.2 | 4.8 | 0.00 | 0.00 | 0.00 | ||
| 20260502204201 | 13 | 135 | 3.2 | 4.8 | 0.00 | 0.00 | 0.00 | ||
| 20260502203759 | 13 | 135 | 1.6 | 4.8 | 0.00 | 0.00 | 0.00 | ||
| 20260502203358 | 14 | 135 | 4.8 | 6.4 | 0.00 | 0.00 | 0.00 | ||
| 20260502202956 | 14 | 135 | 1.6 | 3.2 | 0.00 | 0.00 | 0.00 | ||
| 20260502202554 | 14 | 135 | 4.8 | 6.4 | 0.00 | 0.00 | 0.00 | ||
| 20260502202153 | 14 | 157 | 3.2 | 4.8 | 0.00 | 0.00 | 0.00 | ||
| 20260502201751 | 14 | 157 | 3.2 | 4.8 | 0.00 | 0.00 | 0.00 | ||
| 20260502201348 | 15 | 157 | 3.2 | 4.8 | 0.00 | 0.00 | 0.00 | ||
| 20260502200947 | 14 | 157 | 3.2 | 4.8 | 0.00 | 0.00 | 0.00 | ||
| 20260502200545 | 15 | 192 | 6.4 | 11.3 | 0.00 | 0.00 | 0.00 |